Flag for Germany Weather past 2 weeks in Bünde, North Rhine-Westphalia, Germany

Now
54 °F

Passing clouds.


Feels Like: 50 °F
Forecast: 51 / 66 °F
Wind: 12 mph from West

Location: Bueckeburg

Current Time: Sep 2, 2015 at 7:21:45 AM

Latest Report: Sep 2, 2015 at 5:20 AM


Visibility: N/A

Pressure: 29.98 "Hg

Humidity: 88%

Dew point: 50 °F

Location of BündeLocation

Historic Weather in Bünde — Graph

°F

Bünde temperature yesterday

Maximum temperature yesterday: 73 °F (at 12:20 AM)
Minimum temperature yesterday: 57 °F (at 11:20 PM)
Average temperature yesterday: 65 °F

Past Weeks' High & Low Weather Summary

 TemperatureHumidityPressure
High91 °F (Aug 31, 4:20 PM)100% (Aug 27, 7:20 PM)30.27 "Hg (Aug 27, 7:20 PM)
Low52 °F (Aug 29, 6:20 AM)30% (Aug 31, 4:20 PM)29.56 "Hg (Aug 24, 6:20 PM)
Average66 °F72%29.98 "Hg
* Reported Aug 18 5:20 AM — Sep 2 5:20 AM, Bünde, Weather by CustomWeather, © 2015

Note: Actual official high and low records may vary slightly from our data, if they occured in-between our weather recording intervals... More about our weather records

Advertising

Bünde weather history for previous 24 hours

 ConditionsComfort  
Time TempWeatherWind HumidityBarometerVisibility
5:20 AM
Wed, Sep 2
54 °FPassing clouds.12 mph88%29.98 "HgN/A
4:20 AM54 °FPassing clouds.8 mph94%30.01 "HgN/A
3:20 AM54 °FCool.9 mph94%30.01 "HgN/A
2:20 AM54 °FPassing clouds.6 mph94%30.01 "HgN/A
1:20 AM55 °FPassing clouds.7 mph88%30.01 "HgN/A
12:20 AM55 °FPassing clouds.9 mph88%29.98 "HgN/A
11:20 PM
Tue, Sep 1
57 °FPassing clouds.9 mph88%29.98 "HgN/A
10:20 PM59 °FPassing clouds.8 mph82%29.95 "HgN/A
9:20 PM59 °FPassing clouds.7 mph94%29.95 "HgN/A
8:20 PM61 °FScattered clouds.8 mph88%29.92 "HgN/A
7:20 PM61 °FPartly sunny.9 mph88%29.92 "HgN/A
6:20 PM61 °FBroken clouds.10 mph88%29.89 "HgN/A
5:20 PM61 °FLight rain. Broken clouds.8 mph94%29.89 "HgN/A
4:20 PM61 °FLight rain. Partly sunny.8 mph94%29.86 "HgN/A
3:20 PM61 °FRain. Partly sunny.10 mph88%29.86 "HgN/A
2:20 PM63 °FLight rain. Partly sunny.9 mph94%29.83 "HgN/A
1:20 PM63 °FLight rain. Partly sunny.8 mph88%29.83 "HgN/A
12:20 PM63 °FLight rain. Mostly cloudy.10 mph88%29.80 "Hg5 mi
11:20 AM64 °FMostly cloudy.12 mph83%29.80 "HgN/A
10:20 AM64 °FPartly sunny.12 mph83%29.80 "HgN/A
9:20 AM66 °FBroken clouds.13 mph83%29.80 "HgN/A
8:20 AM66 °FPartly sunny.12 mph78%29.77 "HgN/A
7:20 AM68 °FPassing clouds.15 mph73%29.77 "HgN/A
Weather by CustomWeather, © 2015

See weather overviewHow to use our weather pages